Location: Unspecified
(0.0000°N, 0.0000°E)
Time: 01:30:03
(UTC+00:00)

A-11 Canister half - Pass Details

Date: 27 November 2019
Orbit: 1515 x 1685 km, 47.2° (Epoch: 10 December)

Event Time Altitude Azimuth Distance (km) Brightness Sun altitude
Rises 01:55:55 0° 298° (WNW) 4,864 - -52.2°
Reaches altitude 10° 01:59:33 10° 288° (WNW) 3,855 - -51.5°
Maximum altitude 02:07:54 32° 229° (SW) 2,485 - -49.8°
Exits shadow 02:12:46 21° 186° (S) 2,991 10.6 -48.7°
Drops below altitude 10° 02:16:03 10° 170° (S) 3,745 11.3 -48.1°
Sets 02:19:34 0° 160° (SSE) 4,708 12.0 -47.3°
